Tracking 31027 objects as of 19-Jul-2025
HD Live streaming from Space Station
objects crossing your sky now

SL-14 R/B

Track SL-14 R/B now!
10-day predictions
SL-14 R/B is classified as:


NORAD ID: 18749
Int'l Code: 1988-001B
Perigee: 608.3 km
Apogee: 631.7 km
Inclination: 82.5 °
Period: 97.0 minutes
Semi major axis: 6991 km
RCS: 4.583 m2 (large)
Launch date: January 6, 1988
Source: Commonwealth of Independent States (former USSR) (CIS)
Launch site: PLESETSK MISSILE AND SPACE COMPLEX (PKMTR)

Note: This is a ROCKET BODY
Your satellite tracking list
Your tracking list is empty




NASA's NSSDC Master Catalog

Two Line Element Set (TLE):
1 18749U 88001B   25199.85006737  .00000301  00000-0  32302-4 0  9996
2 18749  82.5115  55.2929 0016723 293.8420  66.1043 14.85223607 28392
Source of the keplerian elements: AFSPC